Tracking 25709 objects as of 23-May-2022
HD Live streaming from Space Station
objects crossing your sky now

FLOCK 3P 4

Track FLOCK 3P 4 now!
10-day predictions
FLOCK 3P 4 is classified as:


NORAD ID: 41965
Int'l Code: 2017-008T
Perigee: 466.1 km
Apogee: 474.5 km
Inclination: 97.3 °
Period: 93.9 minutes
Semi major axis: 6841 km
RCS: Unknown
Launch date: February 15, 2017
Source: United States (US)
Launch site: SRIHARIKOTA (SRI)
aabbcc
Your satellite tracking list
Your tracking list is empty




NASA's NSSDC Master Catalog

Two Line Element Set (TLE):
1 41965U 17008T   22142.73316404  .00080004  00000-0  23917-2 0  9996
2 41965  97.2759 209.3054 0006097 309.1408  50.9292 15.34251569293064
Source of the keplerian elements: AFSPC